Lid_Strength_Index
5 7 8 6 6 6 7 8 9 8 7 8 8 8 8 6 6 7 6 5 4 4 2 2 1 1 0 0 0 -0 -0 -1 -0 0 0 0 1 -1 -1 -1 -2 -2 -2 -2
7 8 6 5 6 7 7 8 9 7 7 8 7 8 7 7 6 6 6 6 5 4 3 2 2 1 1 1 0 0 -0 -0 -0 -0 -0 -0 -0 -1 -1 -1 -2 -2 -2 -2
7 6 5 6 7 8 7 8 8 8 8 7 7 8 8 7 6 6 5 5 4 4 4 3 2 2 1 1 0 0 -0 -0 -1 -1 -0 -0 -0 -1 -0 -1 -0 -1 -2 -2
7 5 6 7 8 7 9 7 7 8 8 11 7 11 8 8 8 7 6 5 5 4 3 3 2 2 1 1 0 -0 -0 -0 -0 -1 -0 -0 1 1 0 -0 -1 -1 -2 -2
7 7 7 8 8 6 8 6 7 7 8 8 9 9 9 7 9 8 6 5 4 4 3 3 2 2 1 1 1 0 -0 -0 -1 -1 -1 0 0 0 -0 -0 -1 -2 -2 -2
7 4 5 6 6 6 6 7 7 7 8 12 9 9 10 9 9 7 6 5 5 4 3 3 2 1 1 1 1 0 0 0 -0 -0 -0 -0 -0 -0 0 0 0 -0 -0 -1
7 7 6 6 7 6 7 8 12 12 12 12 8 9 11 8 7 6 6 5 4 4 3 3 3 2 2 1 1 1 0 1 0 -0 -0 -0 -0 -0 -0 -0 0 -0 0 -0
10 11 7 7 7 8 8 8 10 14 13 11 8 11 11 6 5 5 5 5 4 4 3 3 2 2 2 1 1 1 1 1 0 0 0 -0 -0 0 0 -0 -0 0 0 -0
9 10 8 8 7 7 8 9 6 10 9 10 9 10 7 6 6 6 6 5 5 4 4 3 2 2 2 1 1 1 1 1 0 0 0 -0 -0 -0 -0 -1 -1 -0 -1 -1
7 10 8 8 7 7 7 6 10 9 13 13 11 11 11 9 8 7 7 6 5 4 4 3 3 2 2 1 1 1 0 1 0 0 0 0 -0 -0 -0 -1 -1 -1 -1 -1
6 7 9 7 8 8 8 8 8 8 9 12 13 11 7 8 8 7 6 6 5 5 4 3 3 2 1 1 1 1 1 1 1 0 0 0 0 -0 -0 -0 -0 -1 -1 -1
7 7 9 9 8 7 7 8 7 10 11 9 10 12 6 7 6 6 6 6 6 5 4 4 3 2 2 1 1 1 1 1 1 0 0 0 -0 -0 -0 -0 -0 -1 -1 -1
6 8 11 10 8 7 8 8 7 7 8 10 11 12 6 6 6 6 6 5 5 5 4 4 4 3 3 2 2 1 1 1 0 0 0 0 0 0 0 -0 -0 -1 -1 -1
5 7 9 11 9 8 9 9 8 8 10 9 9 11 8 7 7 6 6 5 5 4 5 4 4 5 4 2 2 1 1 0 0 0 0 0 0 0 0 -0 -0 -0 -1 -1
6 10 8 8 8 9 9 9 9 9 8 10 9 10 9 7 7 6 5 5 5 4 4 5 5 5 5 5 4 2 1 0 0 0 1 1 0 -0 -0 -0 -0 -0 -0 -0
7 10 8 10 9 9 10 9 9 10 9 8 8 10 6 5 5 5 5 5 5 5 5 4 4 4 3 5 5 5 3 1 0 1 1 0 0 0 0 0 0 -0 -0 -0
8 8 9 11 10 10 11 8 9 9 8 8 9 8 6 6 6 6 5 4 5 4 6 6 5 5 4 2 3 5 5 2 1 1 1 1 0 1 0 0 0 0 0 -0
8 8 9 10 10 14 9 7 7 8 8 7 7 7 6 6 5 4 4 5 5 5 4 4 5 5 5 5 2 2 4 4 3 1 1 1 1 1 0 0 1 0 0 0
6 7 10 11 11 10 10 8 8 8 9 7 7 7 6 5 5 5 4 4 5 4 4 4 4 5 5 5 4 2 3 4 4 5 3 2 1 1 1 1 1 1 1 0
7 7 9 10 12 13 9 7 6 6 10 6 6 6 7 6 7 7 4 4 4 4 4 4 4 4 4 4 5 5 2 2 4 5 5 3 2 1 1 1 1 0 0 1
10 10 11 11 12 10 7 6 5 11 11 6 6 6 6 7 6 5 4 4 4 4 4 4 3 4 3 3 3 4 4 3 2 1 3 4 2 2 0 1 1 1 1 1
11 12 12 11 13 14 5 7 9 7 6 6 6 6 6 6 5 5 4 4 4 4 3 3 4 4 3 2 3 3 3 1 0 1 2 2 2 3 1 0 0 0 1 1
12 8 10 10 9 6 5 5 5 5 6 6 5 5 5 6 5 5 4 4 4 4 4 3 3 3 2 2 2 2 2 1 1 1 2 1 2 2 1 0 1 1 1 2
7 6 9 9 6 6 5 5 5 5 5 5 4 5 5 5 5 5 4 5 5 4 4 3 3 3 3 2 2 1 1 0 1 3 2 3 3 3 2 2 1 1 1 1
6 6 8 8 6 5 4 4 3 4 4 4 4 4 4 4 4 4 5 5 4 5 4 3 5 5 3 2 2 1 0 0 1 1 3 2 3 4 4 3 2 1 0 2
6 7 9 10 5 5 5 3 3 3 4 4 4 4 4 4 4 4 5 5 4 4 4 4 5 5 5 3 2 0 -0 -0 1 1 1 3 3 4 4 4 4 6 8 8